Oxford, CT

2:35 AM EDT on September 23, 2017 (GMT -0400)
Waterbury-Oxford

Weather History for KOXC - November, 2010

Change the Weather History Date:

Tuesday, November 23, 2010

  Actual Average Record
Temperature  
Mean Temperature 52 °F -  
Max Temperature 57 °F 45 °F 64 °F (1999)
Min Temperature 44 °F 30 °F 14 °F (2008)
Degree Days  
Heating Degree Days 14    
Growing Degree Days 2 (Base 50)    
Moisture  
Dew Point 43 °F    
Average Humidity 78    
Maximum Humidity 93    
Minimum Humidity 47    
Precipitation  
Precipitation 0.00 in - - ()
Sea Level Pressure  
Sea Level Pressure 29.95 in    
Wind  
Wind Speed 5 mph (SW)    
Max Wind Speed 16 mph    
Max Gust Speed 21 mph    
Visibility 5 miles    
Events Fog    
Averages and records for this station are not official NWS values.
T = Trace of Precipitation, MM = Missing Value Source: NWS Daily Summary

Daily Weather History Graph

Daily Weather History Graph

Search for Another Location

Airport or City:

Trip Planner

Search our weather history database for the weather conditions in past years. The results will help you decide how hot, cold, wet, or windy it might be!

Date:

Astronomy

Nov. 23, 2010 Rise Set
Actual Time 6:50 AM EST 4:27 PM EST
Civil Twilight 6:20 AM EST 4:57 PM EST
Nautical Twilight 5:46 AM EST 5:31 PM EST
Astronomical Twilight 5:13 AM EST 6:04 PM EST
Moon 6:04 PM EST 8:47 AM EST
Length of Visible Light 10h 37m
Length of Day
9h 36m
Waning Gibbous, 96% of the Moon is Illuminated
Nov 23
Waning Gibbous
Nov 28
Last Quarter
Dec 5
New
Dec 13
First Quarter
Dec 21
Full

Hourly Weather History & Observations

Time (EST) Temp. Windchill Dew Point Humidity Pressure Visibility Wind Dir Wind Speed Gust Speed Precip Events Conditions
12:15 AM 50.0 °F - 46.4 °F 87% 30.10 in 5.0 mi SSW 3.5 mph - N/A   Clear
12:35 AM 50.0 °F - 46.4 °F 87% 30.10 in 5.0 mi SSW 4.6 mph - N/A   Clear
12:55 AM 50.0 °F - 46.4 °F 87% 30.09 in 5.0 mi Calm Calm - N/A   Clear
1:15 AM 48.2 °F - 46.4 °F 93% 30.08 in 5.0 mi South 3.5 mph - N/A   Clear
1:35 AM 48.2 °F - 44.6 °F 87% 30.08 in 4.0 mi South 3.5 mph - N/A   Clear
1:55 AM 48.2 °F - 44.6 °F 87% 30.07 in 3.0 mi SSW 4.6 mph - N/A   Clear
2:15 AM 48.2 °F - 44.6 °F 87% 30.07 in 4.0 mi SW 3.5 mph - N/A   Clear
2:35 AM 48.2 °F - 46.4 °F 93% 30.06 in 4.0 mi SW 4.6 mph - N/A   Clear
2:55 AM 48.2 °F - 44.6 °F 87% 30.05 in 3.0 mi SW 4.6 mph - N/A   Clear
3:15 AM 48.2 °F - 44.6 °F 87% 30.05 in 3.0 mi SW 3.5 mph - N/A   Clear
3:35 AM 48.2 °F - 44.6 °F 87% 30.04 in 3.0 mi SW 4.6 mph - N/A   Clear
3:55 AM 48.2 °F - 44.6 °F 87% 30.03 in 3.0 mi SSW 4.6 mph - N/A   Clear
4:15 AM 46.4 °F 44.3 °F 44.6 °F 93% 30.03 in 2.5 mi South 4.6 mph - N/A   Clear
4:35 AM 46.4 °F 45.2 °F 44.6 °F 93% 30.02 in 2.5 mi SSW 3.5 mph - N/A   Clear
4:55 AM 48.2 °F - 44.6 °F 87% 30.01 in 2.5 mi SW 3.5 mph - N/A   Clear
5:15 AM 46.4 °F 45.2 °F 44.6 °F 93% 30.02 in 2.0 mi SW 3.5 mph - N/A   Clear
5:35 AM 46.4 °F 45.2 °F 44.6 °F 93% 30.00 in 1.5 mi SSW 3.5 mph - N/A   Clear
5:45 AM 46.4 °F 44.3 °F 44.6 °F 93% 30.00 in 1.0 mi SW 4.6 mph - N/A   Clear
5:55 AM 46.4 °F 44.3 °F 44.6 °F 93% 30.00 in 1.2 mi SSW 4.6 mph - N/A   Scattered Clouds
6:45 AM 46.4 °F 44.3 °F 44.6 °F 93% 29.99 in 1.0 mi SW 4.6 mph - N/A   Mostly Cloudy
7:45 AM 48.2 °F - 44.6 °F 87% 29.99 in 1.0 mi SSW 3.5 mph - N/A   Clear
8:04 AM 48.2 °F - 44.6 °F 87% 29.98 in 0.5 mi SW 4.6 mph - N/A Fog Fog
8:45 AM 50.0 °F - 46.4 °F 87% 29.94 in 2.0 mi SW 5.8 mph - N/A   Clear
9:13 AM 51.8 °F - 46.4 °F 82% 29.95 in 2.0 mi SW 5.8 mph - N/A   Overcast
9:45 AM 50.0 °F - 46.4 °F 87% 29.95 in 2.5 mi WSW 5.8 mph - N/A   Overcast
10:45 AM 53.6 °F - 46.4 °F 77% 29.91 in 4.0 mi SSW 4.6 mph - N/A   Haze
11:45 AM 55.4 °F - 46.4 °F 72% 29.88 in 8.0 mi SSW 5.8 mph - N/A   Overcast
12:45 PM 55.4 °F - 48.2 °F 77% 29.85 in 8.0 mi SW 4.6 mph - N/A   Overcast
1:45 PM 57.2 °F - 48.2 °F 72% 29.83 in 8.0 mi SW 4.6 mph - N/A   Mostly Cloudy
2:45 PM 57.2 °F - 48.2 °F 72% 29.80 in 8.0 mi SW 4.6 mph - N/A   Partly Cloudy
3:45 PM 55.4 °F - 46.4 °F 72% 29.79 in 8.0 mi SSW 5.8 mph - N/A   Partly Cloudy
4:45 PM 55.4 °F - 46.4 °F 72% 29.80 in 8.0 mi South 4.6 mph - N/A   Partly Cloudy
5:55 PM 55.4 °F - 46.4 °F 72% 29.79 in 8.0 mi West 5.8 mph - N/A   Clear
6:55 PM 53.6 °F - 46.4 °F 77% 29.80 in 8.0 mi West 6.9 mph - N/A   Clear
8:55 PM 53.6 °F - 39.2 °F 58% 29.82 in 10.0 mi WNW 9.2 mph - N/A   Clear
9:15 PM 53.6 °F - 35.6 °F 51% 29.83 in 10.0 mi NW 9.2 mph 20.7 mph N/A   Clear
9:35 PM 51.8 °F - 33.8 °F 50% 29.84 in 10.0 mi WNW 9.2 mph - N/A   Clear
9:55 PM 51.8 °F - 32.0 °F 47% 29.85 in 10.0 mi NW 6.9 mph - N/A   Clear
10:15 PM 50.0 °F - 32.0 °F 50% 29.86 in 10.0 mi NW 8.1 mph 16.1 mph N/A   Clear
10:35 PM 48.2 °F - 32.0 °F 54% 29.87 in 10.0 mi NNW 12.7 mph 18.4 mph N/A   Clear
10:55 PM 46.4 °F 39.8 °F 33.8 °F 62% 29.88 in 10.0 mi NNW 16.1 mph 20.7 mph N/A   Clear
11:15 PM 46.4 °F 41.9 °F 32.0 °F 57% 29.90 in 10.0 mi NW 9.2 mph - N/A   Clear
11:35 PM 46.4 °F 41.1 °F 30.2 °F 53% 29.90 in 10.0 mi NNW 11.5 mph - N/A   Clear
11:55 PM 44.6 °F 39.2 °F 30.2 °F 57% 29.90 in 10.0 mi NNW 10.4 mph 16.1 mph N/A   Clear